This is the latest recevied weather packets stored in our database for station/object WE8M. If no packets are shown the sender has not sent any weather packets the latest 10 day(s).
| Time | Temp. | Humidity | Pressure | Rain* | Wind** | Luminosity | Snow |
|---|---|---|---|---|---|---|---|
| 1777850953 | 13.89° C | 46% | 1014.1 hPa | 0 mm | - | - | - |
| 1777850650 | 14.44° C | 44% | 1014.4 hPa | 0 mm | - | - | - |
| 1777850348 | 14.44° C | 46% | 1014.6 hPa | 0 mm | - | - | - |
| 1777850045 | 14.44° C | 44% | 1014.3 hPa | 0 mm | - | - | - |
| 1777849741 | 14.44° C | 46% | 1014.4 hPa | 0 mm | - | - | - |
| 1777849438 | 14.44° C | 45% | 1014.6 hPa | 0 mm | - | - | - |
| 1777849136 | 14.44° C | 42% | 1014.5 hPa | 0 mm | - | - | - |
| 1777848832 | 14.44° C | 43% | 1014.7 hPa | 0 mm | - | - | - |
| 1777848528 | 14.44° C | 44% | 1014.7 hPa | 0 mm | - | - | - |
| 1777848225 | 14.44° C | 42% | 1014.9 hPa | 0 mm | - | - | - |
| 1777847923 | 14.44° C | 42% | 1014.6 hPa | 0 mm | - | - | - |
| 1777847621 | 14.44° C | 42% | 1014.8 hPa | 0 mm | - | - | - |
| 1777847316 | 14.44° C | 42% | 1014.9 hPa | 0 mm | - | - | - |
| 1777847015 | 14.44° C | 44% | 1014.9 hPa | 0 mm | - | - | - |
| 1777846712 | 14.44° C | 42% | 1014.9 hPa | 0 mm | - | - | - |
| 1777846411 | 14.44° C | 42% | 1014.8 hPa | 0 mm | - | - | - |
| 1777846106 | 14.44° C | 41% | 1014.9 hPa | 0 mm | - | - | - |
| 1777845803 | 14.44° C | 40% | 1014.8 hPa | 0 mm | - | - | - |
| 1777845500 | 15° C | 43% | 1014.8 hPa | 0 mm | - | - | - |
| 1777845198 | 15° C | 42% | 1014.7 hPa | 0 mm | - | - | - |
| 1777844895 | 15° C | 42% | 1015.1 hPa | 0 mm | - | - | - |
| 1777844592 | 15° C | 40% | 1015 hPa | 0 mm | - | - | - |
| 1777844290 | 14.44° C | 44% | 1015.3 hPa | 0 mm | - | - | - |
| 1777843988 | 14.44° C | 39% | 1015.5 hPa | 0 mm | - | - | - |
| 1777843684 | 14.44° C | 43% | 1015.9 hPa | 0 mm | - | - | - |
* Rain latest hour (hover to see other rain measurements)
** Current wind speed in m/s (hover to see current wind gust speed)